Weather History for Mason City, IA

Change the Weather History Date:

Friday, July 11, 2014

  Actual Average Record
Temperature  
Mean Temperature 73 °F 72 °F  
Max Temperature 81 °F 84 °F 106 °F (1936)
Min Temperature 64 °F 61 °F 43 °F (1945)
Degree Days  
Heating Degree Days 0 0  
Month to date heating degree days 9 0  
Since 1 June heating degree days 22 44  
Since 1 July heating degree days 9 0  
Cooling Degree Days 8 8  
Month to date cooling degree days 42 78  
Year to date cooling degree days 231 251  
Since 1 June cooling degree days 178 216  
Growing Degree Days 22 (Base 50)    
Moisture  
Dew Point 64 °F    
Average Humidity 81    
Maximum Humidity 100    
Minimum Humidity 62    
Precipitation  
Precipitation 0.01 in 0.14 in 1.96 in (1964)
Month to date precipitation 0.13 1.68  
Year to date precipitation 22.81 19.30  
Snow  
Snow 0.00 in 0.00 in - ()
Month to date snowfall 0.0 0.0  
Since 1 June snowfall 0.0 0.0  
Since 1 July snowfall 0.0 0.0  
Snow Depth 0.00 in    
Sea Level Pressure  
Sea Level Pressure 30.02 in    
Wind  
Wind Speed 11 mph (South)    
Max Wind Speed 21 mph    
Max Gust Speed 27 mph    
Visibility 10 miles    
Events Rain    
T = Trace of Precipitation, MM = Missing Value Source: NWS Daily Summary

Daily Weather History Graph

Daily Weather History Graph

Search for Another Location

Airport:

Trip Planner

Search our weather history database for the weather conditions in past years. The results will help you decide how hot, cold, wet, or windy it might be!

Date:

Astronomy

Jul. 11, 2014 Rise Set
Actual Time 5:44 AM CDT 8:53 PM CDT
Civil Twilight 5:09 AM CDT 9:27 PM CDT
Nautical Twilight 4:24 AM CDT 10:12 PM CDT
Astronomical Twilight 3:31 AM CDT 11:05 PM CDT
Moon 8:01 PM CDT (7/11) 4:58 AM CDT (7/11)
Length of Visible Light 16h 18m
Length of Day
15h 09m
Waxing Gibbous, 99% of the Moon is Illuminated
Jul 11
Waxing Gibbous
Jul 12
Full
Jul 18
Last Quarter
Jul 26
New
Aug 3
First Quarter

Hourly Weather History & Observations

Time (CDT) Temp. Dew Point Humidity Pressure Visibility Wind Dir Wind Speed Gust Speed Precip Events Conditions
12:53 AM 66.2 °F 59.0 °F 78% 30.08 in 10.0 mi South 9.2 mph - N/A   Clear
1:53 AM 66.9 °F 59.0 °F 76% 30.05 in 10.0 mi South 9.2 mph - N/A   Scattered Clouds
2:53 AM 64.9 °F 60.1 °F 84% 30.04 in 10.0 mi SSE 11.5 mph - 0.00 in Rain Light Rain
3:53 AM 64.9 °F 60.1 °F 84% 30.05 in 10.0 mi SSE 9.2 mph - 0.00 in Rain Light Rain
4:53 AM 64.9 °F 59.0 °F 81% 30.06 in 10.0 mi SSE 9.2 mph - 0.01 in Rain Light Rain
5:53 AM 64.9 °F 57.9 °F 78% 30.06 in 10.0 mi SSE 12.7 mph - 0.00 in   Scattered Clouds
6:53 AM 64.9 °F 59.0 °F 81% 30.04 in 10.0 mi SSE 12.7 mph - N/A   Clear
7:53 AM 66.0 °F 59.0 °F 78% 30.03 in 10.0 mi South 12.7 mph - N/A   Mostly Cloudy
8:53 AM 68.0 °F 59.0 °F 73% 30.05 in 10.0 mi South 16.1 mph - N/A   Overcast
9:53 AM 71.1 °F 62.1 °F 73% 30.02 in 10.0 mi South 17.3 mph 23.0 mph 0.00 in   Mostly Cloudy
10:53 AM 73.0 °F 64.0 °F 73% 29.99 in 10.0 mi SSE 15.0 mph 25.3 mph N/A   Clear
11:53 AM 75.0 °F 66.0 °F 73% 29.99 in 10.0 mi SSE 16.1 mph 23.0 mph N/A   Partly Cloudy
12:53 PM 75.9 °F 66.0 °F 71% 30.01 in 10.0 mi South 12.7 mph - N/A   Clear
1:53 PM 78.1 °F 64.9 °F 64% 30.00 in 10.0 mi South 11.5 mph - N/A   Partly Cloudy
2:53 PM 79.0 °F 66.9 °F 66% 30.01 in 10.0 mi South 13.8 mph - N/A   Scattered Clouds
3:53 PM 79.0 °F 68.0 °F 69% 30.00 in 10.0 mi South 12.7 mph 21.9 mph N/A   Mostly Cloudy
4:53 PM 77.0 °F 66.9 °F 71% 29.99 in 10.0 mi South 12.7 mph - N/A   Overcast
5:29 PM 78.1 °F 66.9 °F 68% 30.02 in 10.0 mi South 11.5 mph - N/A   Scattered Clouds
5:49 PM 77.0 °F 68.0 °F 74% 30.03 in 10.0 mi South 10.4 mph - N/A   Mostly Cloudy
5:53 PM 75.9 °F 66.9 °F 74% 30.00 in 10.0 mi South 12.7 mph - N/A   Mostly Cloudy
6:53 PM 75.0 °F 66.9 °F 76% 30.00 in 10.0 mi South 11.5 mph - N/A   Overcast
7:10 PM 75.0 °F 66.9 °F 76% 30.04 in 10.0 mi South 6.9 mph - N/A   Overcast
7:53 PM 73.9 °F 66.9 °F 79% 30.01 in 10.0 mi South 9.2 mph - N/A   Overcast
8:53 PM 70.0 °F 66.9 °F 90% 30.01 in 9.0 mi South 6.9 mph - N/A   Clear
9:53 PM 70.0 °F 66.9 °F 90% 30.02 in 9.0 mi South 5.8 mph - N/A   Partly Cloudy
10:53 PM 66.9 °F 66.0 °F 97% 30.03 in 6.0 mi South 6.9 mph - N/A   Clear
11:53 PM 66.9 °F 66.0 °F 97% 30.04 in 6.0 mi Calm Calm - N/A   Clear